This is the latest recevied weather packets stored in our database for station/object KA8OAD-10. If no packets are shown the sender has not sent any weather packets the latest 10 day(s).
| Time | Temp. | Humidity | Pressure | Rain* | Wind** | Luminosity | Snow |
|---|---|---|---|---|---|---|---|
| 1787509562 | 25° C | 50% | 1012.1 hPa | 0 mm | - | 773 W/m² | - |
| 1787509263 | 25° C | 52% | 1012.1 hPa | 0 mm | - | 789 W/m² | - |
| 1787508363 | 25.56° C | 52% | 1012 hPa | 0 mm | - | 749 W/m² | - |
| 1787508063 | 25° C | 54% | 1012.1 hPa | 0 mm | - | 828 W/m² | - |
| 1787507762 | 25° C | 54% | 1012 hPa | 0 mm | - | 858 W/m² | - |
| 1787507160 | 24.44° C | 55% | 1012.2 hPa | 0 mm | - | 814 W/m² | - |
| 1787506866 | 24.44° C | 57% | 1012.2 hPa | 0 mm | - | 770 W/m² | - |
| 1787506564 | 24.44° C | 57% | 1012.1 hPa | 0 mm | - | 874 W/m² | - |
| 1787505962 | 23.89° C | 59% | 1012.2 hPa | 0 mm | - | 835 W/m² | - |
| 1787505661 | 23.89° C | 58% | 1012.2 hPa | 0 mm | - | 835 W/m² | - |
| 1787505361 | 24.44° C | 57% | 1012.3 hPa | 0 mm | - | 132 W/m² | - |
| 1787504763 | 23.89° C | 60% | 1012.2 hPa | 0 mm | - | 137 W/m² | - |
| 1787504465 | 23.89° C | 61% | 1012.4 hPa | 0 mm | - | 877 W/m² | - |
| 1787504162 | 23.33° C | 64% | 1012.4 hPa | 0 mm | - | 828 W/m² | - |
| 1787503864 | 22.78° C | 63% | 1012.4 hPa | 0 mm | - | 824 W/m² | - |
| 1787503562 | 22.78° C | 64% | 1012.4 hPa | 0 mm | - | 823 W/m² | - |
| 1787503263 | 22.78° C | 63% | 1012.4 hPa | 0 mm | - | 835 W/m² | - |
| 1787502961 | 22.78° C | 64% | 1012.5 hPa | 0 mm | - | 144 W/m² | - |
| 1787502664 | 22.78° C | 65% | 1012.5 hPa | 0 mm | - | 142 W/m² | - |
| 1787502363 | 22.22° C | 65% | 1012.6 hPa | 0 mm | - | 809 W/m² | - |
| 1787502065 | 22.22° C | 65% | 1012.6 hPa | 0 mm | - | 134 W/m² | - |
| 1787501463 | 22.22° C | 67% | 1012.6 hPa | 0 mm | - | 831 W/m² | - |
| 1787501161 | 21.67° C | 69% | 1012.6 hPa | 0 mm | - | 800 W/m² | - |
| 1787500860 | 21.67° C | 72% | 1012.6 hPa | 0 mm | - | 135 W/m² | - |
| 1787500564 | 21.11° C | 72% | 1012.5 hPa | 0 mm | - | 791 W/m² | - |
* Rain latest hour (hover to see other rain measurements)
** Current wind speed in m/s (hover to see current wind gust speed)